QPF
0.00 0.00 0.00 -0.00 0.00 0.00 0.00 0.00 0.00 0.00 0.00 0.00 0.00 0.00 0.00 -0.00 0.00 -0.00 0.00 0.00 0.00 0.00 0.01 0.01 0.01 0.01 0.01 0.01 0.00 0.00 0.00 0.00 0.00 0.00 0.00 0.00 0.00 0.00 0.00 0.00 0.00 0.00
0.00 0.00 -0.00 0.00 0.00 -0.00 0.00 0.00 0.00 -0.00 0.00 0.00 0.00 0.00 0.00 0.00 0.00 0.00 0.00 0.00 0.00 0.01 0.02 0.02 0.02 0.01 0.01 0.01 0.01 0.00 0.00 0.00 0.00 0.00 0.00 0.00 0.00 0.00 0.00 0.00 -0.00 -0.00
0.00 0.00 0.00 0.00 0.00 -0.00 0.00 0.00 0.00 0.00 -0.00 0.00 0.00 0.00 0.00 -0.00 0.00 0.00 0.00 0.00 0.00 0.01 0.02 0.02 0.02 0.02 0.02 0.01 0.01 0.00 0.00 0.00 0.00 0.00 0.00 -0.00 0.00 -0.00 -0.00 -0.00 0.00 0.00
0.00 0.00 0.00 0.00 0.00 0.00 0.00 0.00 0.00 0.00 -0.00 -0.00 0.00 -0.00 0.00 0.00 0.00 0.00 0.00 0.00 0.01 0.02 0.03 0.04 0.04 0.04 0.03 0.02 0.02 0.04 0.04 0.03 0.00 0.00 0.00 0.00 0.00 0.00 -0.00 0.00 0.00 0.00
0.00 0.00 0.00 0.00 0.00 0.00 0.00 0.00 0.00 0.00 0.00 0.00 0.00 0.00 0.00 -0.00 0.00 0.00 0.00 0.00 0.01 0.02 0.04 0.05 0.05 0.05 0.04 0.03 0.03 0.04 0.02 0.01 0.00 0.00 0.00 0.00 0.00 -0.00 -0.00 0.00 0.00 0.00
0.00 0.00 0.00 0.00 0.00 0.00 0.00 0.00 0.00 -0.00 -0.00 -0.00 0.00 0.00 0.00 0.00 0.00 0.00 0.00 0.00 0.01 0.02 0.03 0.04 0.04 0.04 0.03 0.02 0.02 0.01 0.01 0.00 0.00 0.00 0.00 -0.00 0.00 0.00 0.00 -0.00 0.00 0.00
0.00 0.00 0.00 0.00 0.00 0.00 0.00 -0.00 -0.00 0.00 0.00 0.00 -0.00 0.00 0.00 0.00 0.00 0.00 0.00 0.00 0.01 0.02 0.02 0.03 0.03 0.03 0.02 0.02 0.01 0.01 0.01 0.00 0.00 0.00 0.00 0.00 -0.00 0.00 0.00 0.00 0.00 0.00
0.00 0.00 0.00 0.00 0.00 -0.00 0.00 0.00 0.00 0.00 -0.00 0.00 0.00 -0.00 0.00 0.00 -0.00 0.00 0.00 0.00 0.00 0.01 0.02 0.02 0.02 0.02 0.02 0.02 0.01 0.01 0.01 0.01 0.00 0.00 0.00 0.00 0.00 0.00 0.00 0.00 0.00 0.00
0.00 0.00 0.00 0.00 -0.00 0.00 -0.00 0.00 0.00 0.00 0.00 0.00 0.00 0.00 -0.00 -0.00 0.00 0.00 0.00 0.00 0.00 0.01 0.01 0.02 0.02 0.02 0.02 0.01 0.01 0.01 0.01 0.01 0.00 0.00 0.00 0.00 0.00 -0.00 0.00 -0.00 -0.00 0.00
0.00 0.00 0.00 0.00 0.00 -0.00 0.00 0.00 -0.00 0.00 0.00 0.00 0.00 0.00 -0.00 -0.00 0.00 0.00 0.01 0.00 0.00 0.01 0.01 0.01 0.01 0.01 0.02 0.01 0.01 0.01 0.01 0.01 0.00 0.00 0.00 0.00 0.00 0.00 -0.00 0.00 -0.00 -0.00
0.00 0.00 0.00 0.00 0.00 0.00 0.00 0.00 -0.00 0.00 0.00 0.00 0.00 0.00 -0.00 0.00 0.00 0.00 0.00 0.00 0.00 0.00 0.00 0.01 0.02 0.02 0.02 0.02 0.02 0.01 0.01 0.01 0.00 0.00 0.00 0.00 0.00 0.00 0.00 0.00 0.00 0.00
0.00 0.00 0.00 0.00 0.00 0.00 0.00 0.00 0.00 0.00 0.00 0.00 -0.00 0.00 0.00 0.00 0.00 0.00 0.00 0.00 0.00 0.00 0.00 0.04 0.02 0.03 0.03 0.03 0.02 0.01 0.01 0.01 0.01 0.00 0.00 0.00 0.00 0.00 0.00 0.00 0.00 0.00
0.00 0.00 0.00 0.00 0.00 0.00 0.00 0.00 0.00 0.00 0.00 0.00 -0.00 -0.00 0.00 -0.00 0.00 0.00 0.00 0.00 0.00 0.00 0.01 0.02 0.02 0.03 0.03 0.02 0.02 0.02 0.01 0.01 0.01 0.01 0.01 0.00 0.00 0.00 0.00 0.00 0.00 0.00
0.00 0.00 0.00 0.00 0.00 0.00 0.00 0.00 0.00 0.00 0.00 0.00 0.00 0.00 0.00 -0.00 0.00 0.00 0.00 0.00 0.00 0.00 0.00 0.01 0.02 0.02 0.02 0.02 0.01 0.01 0.01 0.01 0.01 0.01 0.01 0.01 0.01 0.01 0.01 0.01 0.01 0.01
0.00 0.00 0.00 0.00 0.00 0.00 0.00 0.00 0.00 0.00 0.00 0.00 0.00 0.00 0.00 -0.00 0.00 0.00 -0.00 0.00 0.00 0.00 0.00 0.01 0.01 0.01 0.01 0.01 0.01 0.01 0.01 0.01 0.01 0.01 0.01 0.01 0.01 0.01 0.01 0.01 0.01 0.01
0.00 0.00 0.00 0.00 0.00 0.00 0.00 0.00 0.00 0.00 0.01 0.01 0.00 0.00 0.00 0.00 0.00 0.00 0.00 0.00 0.00 0.00 0.00 0.00 0.01 0.01 0.01 0.01 0.01 0.02 0.02 0.02 0.01 0.01 0.01 0.01 0.01 0.01 0.01 0.01 0.01 0.00
0.00 0.00 0.00 0.01 0.01 0.01 0.01 0.01 0.01 0.02 0.02 0.01 0.01 0.00 0.00 0.00 0.00 0.00 0.00 0.00 0.00 0.00 0.00 0.01 0.01 0.01 0.01 0.01 0.02 0.02 0.02 0.02 0.01 0.01 0.01 0.01 0.01 0.01 0.01 0.01 0.01 0.00
0.01 0.01 0.01 0.02 0.02 0.03 0.02 0.03 0.04 0.04 0.04 0.02 0.01 0.01 0.00 0.00 0.00 0.00 0.00 0.00 0.00 0.00 0.00 0.00 0.00 0.01 0.01 0.01 0.02 0.02 0.02 0.02 0.01 0.01 0.01 0.02 0.02 0.02 0.01 0.01 0.01 0.00
0.00 0.01 0.02 0.03 0.04 0.03 0.04 0.05 0.06 0.06 0.05 0.04 0.03 0.01 0.00 0.00 0.00 0.00 0.00 0.00 0.00 0.00 0.00 0.00 0.00 0.00 0.01 0.02 0.02 0.03 0.03 0.02 0.02 0.02 0.02 0.02 0.02 0.02 0.01 0.01 0.00 0.00
0.02 0.03 0.03 0.04 0.04 0.04 0.05 0.07 0.07 0.07 0.06 0.05 0.04 0.03 0.01 0.01 0.00 0.00 0.00 0.00 0.00 0.00 0.00 0.00 0.00 0.00 0.01 0.02 0.02 0.03 0.03 0.03 0.03 0.02 0.02 0.02 0.02 0.02 0.01 0.01 0.00 0.00
0.03 0.04 0.04 0.04 0.04 0.04 0.05 0.05 0.05 0.05 0.05 0.05 0.05 0.04 0.03 0.01 0.01 0.01 0.01 0.01 0.00 0.00 0.00 0.00 0.00 0.00 0.01 0.02 0.03 0.03 0.03 0.03 0.03 0.02 0.02 0.03 0.03 0.02 0.01 0.00 0.00 0.00
0.02 0.03 0.04 0.06 0.04 0.03 0.04 0.05 0.06 0.07 0.07 0.07 0.07 0.05 0.03 0.02 0.01 0.01 0.01 0.01 0.01 0.00 0.00 0.00 0.00 0.00 0.01 0.02 0.02 0.03 0.03 0.03 0.03 0.03 0.02 0.02 0.03 0.02 0.01 0.00 0.00 0.00
0.02 0.02 0.04 0.03 0.02 0.03 0.03 0.05 0.06 0.08 0.08 0.08 0.08 0.06 0.03 0.02 0.01 0.01 0.01 0.01 0.01 0.01 0.01 0.00 0.00 0.00 0.01 0.02 0.03 0.03 0.04 0.04 0.03 0.02 0.02 0.02 0.03 0.02 0.01 0.00 0.00 0.00
0.02 0.03 0.03 0.01 0.01 0.02 0.03 0.04 0.05 0.07 0.08 0.09 0.09 0.07 0.05 0.04 0.03 0.02 0.01 0.01 0.01 0.01 0.01 0.00 0.00 0.00 0.01 0.02 0.03 0.03 0.04 0.03 0.02 0.02 0.02 0.01 0.01 0.01 0.01 0.00 0.00 0.00
0.05 0.02 0.01 0.01 0.01 0.01 0.02 0.03 0.04 0.05 0.07 0.08 0.08 0.06 0.04 0.03 0.03 0.03 0.02 0.02 0.01 0.01 0.01 0.01 0.00 0.00 0.01 0.01 0.02 0.03 0.03 0.03 0.02 0.01 0.01 0.01 0.01 0.01 0.01 0.00 0.00 0.00
0.00 0.01 0.01 0.01 0.01 0.01 0.01 0.02 0.02 0.03 0.03 0.05 0.04 0.04 0.04 0.03 0.04 0.03 0.03 0.02 0.02 0.02 0.01 0.01 0.00 0.00 0.00 0.01 0.01 0.02 0.03 0.03 0.02 0.02 0.02 0.01 0.01 0.01 0.01 0.00 0.00 0.00
MSLP
1009.46 1009.18 1008.94 1008.54 1008.06 1007.66 1007.38 1007.30 1007.26 1007.30 1007.26 1007.34 1007.42 1007.46 1007.62 1007.58 1007.86 1008.26 1008.46 1008.78 1009.10 1009.42 1009.70 1010.06 1010.38 1010.70 1011.06 1011.42 1011.74 1012.18 1012.66 1013.02 1013.38 1013.74 1014.06 1014.38 1014.70 1015.02 1015.30 1015.54 1015.74 1015.86
1009.34 1009.26 1009.02 1008.70 1008.18 1007.66 1007.26 1007.10 1006.98 1006.98 1006.86 1006.86 1006.82 1006.90 1007.10 1007.42 1007.58 1007.78 1008.06 1008.38 1008.70 1009.02 1009.34 1009.78 1010.10 1010.42 1010.78 1011.10 1011.42 1011.78 1012.18 1012.58 1013.02 1013.34 1013.74 1014.02 1014.30 1014.70 1014.90 1015.10 1015.34 1015.54
1009.38 1009.10 1008.90 1008.58 1008.06 1007.50 1007.14 1006.90 1006.90 1006.82 1006.70 1006.50 1006.50 1006.62 1006.82 1007.02 1007.22 1007.42 1007.66 1007.98 1008.34 1008.62 1008.98 1009.34 1009.74 1010.10 1010.42 1010.70 1011.10 1011.42 1011.74 1012.10 1012.50 1012.86 1013.26 1013.58 1013.94 1014.38 1014.58 1014.82 1015.02 1015.18
1009.22 1009.02 1008.78 1008.34 1007.86 1007.34 1007.02 1006.90 1006.78 1006.74 1006.62 1006.54 1006.30 1006.22 1006.34 1006.58 1006.86 1007.18 1007.42 1007.70 1007.98 1008.22 1008.58 1008.94 1009.30 1009.66 1009.98 1010.34 1010.82 1011.26 1011.50 1011.82 1012.02 1012.42 1012.82 1013.18 1013.58 1013.98 1014.30 1014.54 1014.74 1014.90
1008.98 1008.74 1008.46 1008.14 1007.66 1007.22 1006.90 1006.82 1006.58 1006.42 1006.38 1006.14 1006.10 1006.18 1006.26 1006.42 1006.62 1006.86 1007.06 1007.30 1007.54 1007.86 1008.22 1008.62 1008.94 1009.22 1009.54 1010.02 1010.50 1010.86 1011.22 1011.54 1011.82 1012.06 1012.34 1012.70 1013.10 1013.58 1013.90 1014.26 1014.42 1014.58
1008.46 1008.30 1008.10 1007.86 1007.50 1007.18 1006.82 1006.50 1006.22 1006.14 1006.06 1006.06 1005.90 1005.94 1005.98 1006.06 1006.26 1006.46 1006.66 1006.86 1007.14 1007.46 1007.94 1008.30 1008.66 1008.90 1009.18 1009.54 1010.14 1010.38 1010.70 1011.10 1011.42 1011.70 1011.90 1012.30 1012.74 1013.14 1013.54 1013.82 1014.06 1014.26
1008.02 1007.78 1007.54 1007.42 1007.26 1007.06 1006.90 1006.46 1006.06 1005.78 1005.74 1005.62 1005.70 1005.86 1005.82 1005.86 1005.90 1006.02 1006.22 1006.42 1006.78 1007.10 1007.58 1007.98 1008.34 1008.66 1008.94 1009.26 1009.62 1009.90 1010.22 1010.54 1010.98 1011.26 1011.50 1011.82 1012.34 1012.82 1013.14 1013.42 1013.66 1013.86
1007.54 1007.38 1007.26 1007.14 1006.98 1006.70 1006.58 1006.34 1006.02 1005.62 1005.26 1005.38 1005.46 1005.38 1005.50 1005.46 1005.54 1005.62 1005.82 1006.10 1006.46 1006.82 1007.22 1007.58 1007.94 1008.22 1008.50 1008.90 1009.18 1009.50 1009.82 1010.18 1010.58 1010.90 1011.10 1011.42 1011.86 1012.34 1012.66 1012.98 1013.30 1013.54
1007.30 1007.06 1006.78 1006.66 1006.62 1006.34 1006.18 1005.98 1005.78 1005.54 1005.22 1005.02 1004.94 1004.94 1005.06 1005.18 1005.18 1005.26 1005.42 1005.70 1006.06 1006.46 1006.82 1007.22 1007.58 1007.82 1008.14 1008.46 1008.66 1008.94 1009.30 1009.74 1010.14 1010.42 1010.58 1010.94 1011.34 1011.66 1012.14 1012.58 1012.98 1013.18
1006.78 1006.58 1006.38 1006.14 1006.06 1005.82 1005.66 1005.42 1005.34 1005.26 1005.10 1004.82 1004.38 1004.42 1004.62 1004.74 1004.90 1004.98 1005.18 1005.38 1005.74 1006.18 1006.54 1006.90 1007.26 1007.54 1007.90 1008.14 1008.34 1008.50 1008.78 1009.18 1009.66 1010.06 1010.26 1010.42 1010.70 1011.14 1011.66 1012.14 1012.46 1012.82
1006.34 1006.06 1005.86 1005.58 1005.46 1005.30 1005.10 1004.90 1004.82 1004.78 1004.74 1004.54 1004.18 1003.94 1003.98 1004.30 1004.58 1004.70 1004.82 1005.02 1005.38 1005.74 1006.10 1006.50 1006.74 1007.02 1007.38 1007.74 1007.98 1008.14 1008.26 1008.58 1009.06 1009.50 1009.82 1010.06 1010.30 1010.66 1011.06 1011.54 1011.94 1012.26
1005.94 1005.58 1005.34 1005.02 1004.78 1004.66 1004.50 1004.34 1004.22 1004.18 1004.10 1004.06 1003.86 1003.50 1003.54 1003.82 1004.10 1004.30 1004.30 1004.50 1004.74 1005.06 1005.42 1005.78 1006.18 1006.50 1006.90 1007.30 1007.62 1007.90 1008.02 1008.26 1008.58 1008.94 1009.30 1009.66 1009.98 1010.30 1010.58 1010.90 1011.26 1011.62
1005.58 1005.22 1004.86 1004.54 1004.26 1004.06 1003.94 1003.86 1003.70 1003.58 1003.58 1003.46 1003.30 1003.30 1003.26 1003.46 1003.70 1003.82 1003.94 1004.10 1004.26 1004.54 1004.82 1005.18 1005.62 1006.02 1006.50 1006.98 1007.42 1007.70 1007.82 1008.02 1008.30 1008.50 1008.82 1009.22 1009.54 1009.86 1010.26 1010.70 1011.06 1011.34
1005.26 1004.86 1004.46 1004.10 1003.82 1003.58 1003.46 1003.38 1003.26 1003.10 1002.98 1002.86 1002.94 1003.02 1002.98 1003.02 1003.22 1003.38 1003.50 1003.70 1003.86 1004.06 1004.22 1004.58 1005.06 1005.58 1006.06 1006.54 1007.06 1007.38 1007.50 1007.66 1007.86 1008.10 1008.38 1008.74 1009.18 1009.50 1009.82 1010.14 1010.46 1010.82
1004.94 1004.50 1004.06 1003.66 1003.34 1003.10 1002.94 1002.82 1002.74 1002.62 1002.50 1002.50 1002.46 1002.50 1002.50 1002.54 1002.66 1002.90 1003.18 1003.38 1003.46 1003.62 1003.86 1004.18 1004.62 1005.10 1005.50 1005.94 1006.50 1006.90 1007.14 1007.30 1007.46 1007.74 1007.98 1008.30 1008.70 1009.06 1009.38 1009.70 1010.02 1010.30
1004.58 1004.18 1003.70 1003.26 1002.90 1002.66 1002.42 1002.26 1002.18 1002.10 1002.10 1002.06 1001.98 1001.94 1002.02 1002.14 1002.34 1002.50 1002.66 1002.78 1002.90 1003.10 1003.42 1003.82 1004.22 1004.62 1004.94 1005.22 1005.58 1006.10 1006.58 1006.82 1007.06 1007.30 1007.58 1007.86 1008.22 1008.62 1009.02 1009.34 1009.70 1010.02
1004.22 1003.74 1003.30 1002.94 1002.54 1002.30 1001.94 1001.78 1001.66 1001.62 1001.66 1001.58 1001.50 1001.54 1001.58 1001.74 1001.90 1002.06 1002.06 1002.10 1002.22 1002.50 1002.98 1003.42 1003.78 1004.06 1004.26 1004.50 1004.86 1005.34 1005.98 1006.34 1006.50 1006.82 1007.14 1007.46 1007.74 1008.06 1008.50 1008.94 1009.38 1009.78
1003.86 1003.42 1002.98 1002.54 1002.30 1001.98 1001.58 1001.26 1001.18 1001.26 1001.30 1001.18 1001.10 1001.10 1001.10 1001.26 1001.42 1001.38 1001.42 1001.54 1001.74 1002.10 1002.58 1003.02 1003.38 1003.54 1003.70 1003.90 1004.22 1004.58 1005.14 1005.74 1005.98 1006.22 1006.62 1006.94 1007.22 1007.58 1008.02 1008.46 1008.94 1009.38
1003.50 1003.14 1002.70 1002.30 1001.98 1001.66 1001.34 1000.98 1000.82 1000.94 1000.94 1000.86 1000.74 1000.58 1000.78 1000.98 1000.90 1000.98 1001.06 1001.18 1001.42 1001.74 1002.10 1002.50 1002.90 1003.06 1003.22 1003.38 1003.62 1003.94 1004.34 1005.06 1005.54 1005.82 1006.18 1006.46 1006.82 1007.18 1007.62 1008.06 1008.46 1008.90
1003.18 1002.82 1002.38 1001.98 1001.62 1001.30 1000.94 1000.58 1000.46 1000.50 1000.42 1000.42 1000.38 1000.50 1000.62 1000.62 1000.70 1000.78 1000.82 1000.94 1001.06 1001.30 1001.62 1001.98 1002.34 1002.62 1002.82 1002.98 1003.14 1003.38 1003.70 1004.26 1005.02 1005.38 1005.74 1006.14 1006.42 1006.78 1007.18 1007.58 1007.98 1008.38
1002.86 1002.42 1001.98 1001.54 1001.22 1000.98 1000.62 1000.26 1000.06 1000.06 1000.06 1000.02 1000.06 1000.14 1000.30 1000.30 1000.34 1000.46 1000.46 1000.58 1000.74 1000.98 1001.30 1001.62 1001.90 1002.22 1002.50 1002.62 1002.70 1002.90 1003.18 1003.50 1004.30 1004.94 1005.34 1005.70 1006.06 1006.38 1006.70 1007.06 1007.50 1007.94
1002.54 1002.10 1001.62 1001.10 1000.86 1000.62 1000.34 999.98 999.70 999.66 999.62 999.54 999.66 999.74 999.82 999.94 1000.02 1000.06 1000.14 1000.26 1000.38 1000.70 1001.10 1001.42 1001.66 1001.90 1002.10 1002.26 1002.34 1002.50 1002.78 1003.10 1003.54 1004.22 1004.78 1005.26 1005.66 1006.02 1006.30 1006.66 1007.06 1007.46
1002.10 1001.78 1001.34 1000.94 1000.54 1000.22 999.94 999.62 999.34 999.14 999.14 999.18 999.34 999.34 999.42 999.54 999.50 999.50 999.58 999.82 1000.10 1000.42 1000.82 1001.14 1001.50 1001.62 1001.74 1001.86 1001.98 1002.10 1002.38 1002.74 1003.10 1003.58 1004.14 1004.70 1005.18 1005.58 1005.94 1006.26 1006.62 1007.02
1001.66 1001.42 1001.14 1000.78 1000.38 999.94 999.46 999.06 998.82 998.74 998.74 998.78 998.86 998.82 998.90 998.90 998.98 999.22 999.38 999.58 999.82 1000.10 1000.42 1000.86 1001.14 1001.30 1001.38 1001.42 1001.58 1001.70 1001.90 1002.34 1002.70 1003.10 1003.66 1004.14 1004.74 1005.14 1005.50 1005.90 1006.22 1006.46
1001.34 1001.14 1000.90 1000.54 1000.10 999.58 999.06 998.70 998.42 998.26 998.22 998.34 998.46 998.42 998.34 998.42 998.70 998.98 999.18 999.38 999.54 999.78 1000.10 1000.54 1000.82 1001.02 1001.06 1001.10 1001.14 1001.30 1001.50 1001.94 1002.34 1002.70 1003.30 1003.78 1004.26 1004.78 1005.10 1005.50 1005.94 1006.10
1000.98 1000.74 1000.42 1000.10 999.70 999.14 998.82 998.50 998.18 997.98 997.90 998.02 998.10 998.18 998.10 998.18 998.42 998.70 998.94 999.14 999.34 999.66 999.94 1000.14 1000.50 1000.70 1000.82 1000.78 1000.82 1000.90 1001.06 1001.54 1001.98 1002.38 1002.78 1003.34 1003.82 1004.34 1004.90 1005.38 1005.70 1005.94
Thickness
5388 5388 5389 5392 5395 5396 5398 5398 5397 5397 5395 5395 5393 5392 5390 5387 5385 5380 5377 5374 5370 5366 5363 5359 5356 5353 5350 5346 5343 5339 5334 5331 5328 5324 5322 5319 5317 5314 5311 5309 5307 5304
5379 5379 5379 5381 5385 5388 5390 5390 5390 5390 5390 5390 5389 5388 5386 5382 5379 5376 5373 5370 5366 5363 5359 5355 5351 5347 5345 5342 5340 5336 5332 5328 5325 5321 5319 5316 5313 5311 5308 5306 5303 5301
5370 5370 5370 5372 5377 5380 5383 5383 5383 5383 5383 5383 5384 5382 5381 5378 5375 5372 5369 5365 5361 5358 5355 5351 5347 5344 5341 5339 5336 5333 5329 5326 5323 5319 5316 5314 5310 5307 5304 5301 5299 5297
5361 5362 5362 5364 5369 5372 5375 5375 5375 5375 5375 5376 5377 5376 5375 5372 5370 5367 5364 5361 5358 5354 5351 5347 5344 5340 5337 5335 5331 5329 5326 5323 5320 5317 5313 5311 5307 5304 5300 5297 5295 5293
5352 5353 5353 5356 5360 5363 5366 5367 5367 5368 5368 5370 5370 5370 5369 5367 5364 5361 5358 5356 5353 5350 5347 5342 5340 5336 5334 5330 5326 5324 5322 5319 5316 5313 5310 5307 5303 5300 5296 5294 5292 5289
5345 5346 5346 5348 5351 5353 5356 5358 5360 5362 5361 5363 5363 5362 5362 5360 5359 5357 5354 5352 5349 5346 5342 5337 5334 5332 5329 5326 5323 5321 5319 5315 5312 5309 5308 5304 5300 5297 5293 5290 5288 5286
5339 5339 5339 5340 5342 5343 5345 5348 5351 5354 5355 5356 5356 5356 5355 5355 5354 5352 5350 5348 5345 5341 5338 5333 5329 5327 5325 5321 5319 5317 5315 5312 5309 5306 5304 5301 5297 5294 5290 5287 5285 5282
5331 5332 5332 5332 5333 5335 5336 5338 5341 5345 5348 5349 5349 5349 5349 5349 5349 5348 5345 5343 5340 5336 5333 5329 5326 5323 5320 5318 5315 5313 5311 5308 5305 5303 5301 5298 5294 5291 5287 5283 5281 5278
5324 5325 5325 5325 5326 5328 5329 5331 5333 5336 5338 5341 5343 5344 5344 5343 5343 5342 5340 5338 5335 5331 5328 5324 5321 5319 5315 5314 5312 5310 5307 5304 5301 5299 5297 5296 5292 5288 5284 5280 5277 5275
5317 5318 5318 5318 5320 5321 5323 5325 5326 5328 5330 5333 5337 5338 5338 5337 5336 5335 5334 5332 5329 5326 5322 5319 5316 5314 5311 5309 5308 5306 5304 5301 5297 5294 5293 5292 5289 5286 5282 5277 5274 5272
5310 5310 5311 5312 5313 5314 5317 5319 5320 5322 5323 5326 5330 5333 5334 5331 5329 5328 5327 5326 5324 5321 5319 5316 5313 5311 5308 5306 5304 5302 5301 5298 5294 5292 5289 5287 5285 5282 5279 5276 5272 5269
5299 5300 5302 5305 5307 5308 5310 5313 5314 5316 5317 5320 5324 5327 5328 5326 5322 5322 5322 5320 5320 5317 5316 5313 5310 5307 5305 5302 5300 5298 5297 5295 5292 5289 5286 5284 5281 5278 5276 5274 5270 5267
5283 5287 5289 5294 5298 5301 5303 5305 5307 5310 5312 5313 5317 5319 5320 5319 5317 5316 5316 5316 5314 5312 5311 5310 5307 5304 5301 5298 5295 5293 5292 5290 5288 5286 5284 5281 5278 5275 5273 5270 5267 5263
5267 5271 5275 5279 5283 5288 5293 5296 5298 5302 5305 5307 5309 5311 5313 5314 5313 5312 5311 5310 5309 5308 5307 5306 5303 5300 5297 5293 5290 5288 5288 5286 5285 5283 5281 5278 5274 5272 5269 5267 5264 5260
5255 5258 5261 5265 5268 5274 5279 5284 5288 5292 5295 5299 5302 5304 5306 5307 5308 5307 5306 5305 5305 5304 5302 5301 5299 5295 5292 5289 5286 5285 5284 5282 5281 5280 5278 5275 5271 5268 5266 5263 5260 5257
5247 5248 5251 5254 5257 5262 5267 5273 5278 5281 5284 5289 5294 5297 5298 5299 5301 5301 5301 5301 5301 5300 5298 5296 5294 5290 5287 5285 5283 5282 5280 5278 5277 5276 5274 5272 5269 5265 5262 5259 5256 5253
5241 5242 5244 5246 5249 5253 5259 5265 5270 5272 5275 5279 5285 5289 5291 5292 5294 5295 5296 5296 5297 5296 5294 5291 5288 5286 5284 5283 5282 5280 5277 5274 5274 5272 5270 5268 5266 5263 5259 5256 5252 5249
5236 5237 5238 5240 5242 5245 5251 5258 5262 5264 5266 5270 5276 5281 5284 5285 5287 5290 5291 5291 5291 5290 5288 5286 5284 5281 5280 5281 5280 5278 5274 5271 5269 5268 5267 5265 5263 5260 5257 5253 5249 5246
5232 5232 5233 5235 5237 5240 5245 5251 5255 5258 5260 5264 5269 5273 5276 5279 5281 5284 5285 5285 5284 5284 5283 5281 5280 5278 5277 5277 5277 5275 5272 5268 5265 5264 5263 5262 5260 5257 5254 5249 5247 5244
5227 5228 5230 5232 5234 5237 5241 5246 5249 5252 5256 5259 5263 5266 5269 5272 5275 5276 5277 5278 5279 5279 5279 5277 5275 5273 5273 5274 5273 5272 5270 5266 5263 5260 5259 5258 5256 5253 5251 5247 5245 5242
5224 5225 5228 5231 5233 5235 5238 5243 5246 5248 5252 5255 5257 5261 5264 5267 5269 5270 5271 5273 5273 5273 5273 5273 5271 5268 5268 5269 5269 5269 5267 5265 5261 5257 5255 5254 5251 5249 5248 5246 5242 5239
5221 5223 5226 5229 5231 5233 5236 5240 5244 5246 5249 5251 5254 5257 5261 5262 5264 5265 5267 5268 5268 5268 5268 5266 5265 5264 5264 5264 5265 5265 5264 5262 5260 5256 5252 5249 5247 5246 5245 5243 5240 5237
5221 5221 5224 5227 5230 5232 5235 5239 5242 5245 5247 5248 5250 5254 5257 5258 5260 5262 5263 5264 5264 5263 5262 5260 5259 5259 5259 5260 5261 5262 5261 5260 5258 5255 5251 5247 5244 5244 5243 5240 5238 5236
5220 5220 5221 5223 5226 5230 5234 5238 5241 5244 5245 5246 5248 5253 5255 5256 5257 5258 5260 5260 5260 5259 5258 5257 5255 5255 5256 5257 5257 5259 5259 5258 5256 5253 5249 5244 5242 5241 5240 5238 5236 5234
5218 5219 5219 5220 5223 5228 5232 5236 5239 5242 5244 5244 5246 5249 5253 5254 5254 5255 5256 5255 5256 5255 5253 5253 5252 5251 5252 5254 5254 5256 5257 5255 5253 5251 5247 5243 5240 5238 5238 5235 5233 5233
5217 5217 5218 5219 5222 5226 5229 5232 5236 5239 5242 5243 5244 5246 5249 5251 5252 5252 5252 5252 5252 5251 5249 5249 5249 5248 5249 5250 5251 5254 5255 5253 5251 5248 5246 5242 5238 5236 5235 5232 5230 5229